Location: Dürabuch
(48.2640°N, 11.2185°E)
Time: 19:59:06
(UTC+00:00)

BREEZE-M R/B - Pass Details

Date: 23 May 2024
Orbit: 661 x 26494 km, 48.9° (Epoch: 24 June)

Event Time Altitude Azimuth Distance (km) Brightness Sun altitude
Exits shadow 01:00:10 24° 185° (S) 1,821 4.4 -17.0°
Maximum altitude 01:02:54 41° 130° (SE) 1,742 4.7 -16.8°
Drops below altitude 10° 01:16:07 10° 66° (ENE) 6,893 8.7 -15.7°
Sets 01:27:00 0° 62° (ENE) 10,914 10.0 -14.8°
